Hourly Data Report for January 22, 2021

STE-ANNE-DE-BELLEVUE 1
QUEBEC
Current Station Operator: ECCC - MSC

45°25'38.000" N
73°55'45.000" W
39.00 m
702FHL8
71377
WVQ

Download Data

Hourly Data (January 2021)
Hourly Data Report for January 22, 2021
TIME
LST
Temp Definition
°C
Dew Point Definition
°C
Rel Hum Definition
%
Precip. Amount Definition
mm

Wind Dir Definition
10's deg

Wind Spd Definition
km/h
Visibility Definition
km
Stn Press Definition
kPa
Hmdx Definition


Wind Chill Definition


Weather Definition


00:00 -6.9 -8.2 90 0.0 16 6   99.20   -10 LegendNANA
01:00 -6.4 -7.6 91 0.0 36 1   99.23   -7 LegendNANA
02:00 -6.6 -7.9 91 0.0 35 8   99.29   -10 LegendNANA
03:00 -6.5 -7.7 91 0.0 7 3   99.32   -8 LegendNANA
04:00 -6.2 -7.4 91 0.0 33 4   99.35   -8 LegendNANA
05:00 -6.3 -7.5 92 0.0 33 8   99.36   -10 LegendNANA
06:00 -6.7 -7.8 91 0.0 33 6   99.45   -10 LegendNANA
07:00 -6.6 -7.9 91 0.0 32 3   99.52   -8 LegendNANA
08:00 -5.6 -6.6 93 0.0 28 6   99.61   -8 LegendNANA
09:00 -4.4 -6.8 84 0.2 28 9   99.70   -8 LegendNANA
10:00 -4.0 -6.5 82 0.0 28 10   99.80   -8 LegendNANA
11:00 -2.9 -7.1 73 0.0 27 13   99.85   -8 LegendNANA
12:00 -4.0 -8.0 74 0.0 29 16   99.87   -10 LegendNANA
13:00 -4.5 -9.5 68 0.0 28 16   99.91   -10 LegendNANA
14:00 -4.7 -9.6 69 0.0 29 16   99.98   -10 LegendNANA
15:00 -4.7 -10.1 66 0.0 27 17   100.09   -11 LegendNANA
16:00 -5.4 -10.4 68 0.0 25 15   100.19   -11 LegendNANA
17:00 -5.6 -9.7 73 0.0 26 14   100.31   -11 LegendNANA
18:00 -6.1 -9.4 77 0.0 26 17   100.41   -12 LegendNANA
19:00 -6.6 -9.0 83 0.0 26 18   100.46   -13 LegendNANA
20:00 -6.7 -9.6 80 0.0 27 13   100.50   -12 LegendNANA
21:00 -7.3 -10.4 79 0.0 29 14   100.55   -13 LegendNANA
22:00 -8.0 -11.7 74 0.0 29 14   100.62   -14 LegendNANA
23:00 -8.8 -12.9 72 0.0 29 16   100.67   -16 LegendNANA

Notes on Data Quality.

Legend

  • E = Estimated
  • M = Missing
  • NA = Not Available*
  • [empty] = Indicates an unobserved value
Date modified: